Location: Unspecified
(0.0000°N, 0.0000°E)
Time: 06:31:55
(UTC+00:00)

USA 259 - Visible Passes

Search period start: 24 April 2019 00:00
Search period end: 04 May 2019 00:00
Orbit: 1088 x 39266 km, 63.3° (Epoch: 19 April)

Date Brightness Start Highest point End Pass type
(mag) Time Alt. Az. Time Alt. Az. Time Alt. Az.
24 Apr ? 11:48:54 10° SW 22:54:02 73° N 22:54:02 73° N visible
25 Apr ? 11:44:29 10° SW 22:50:08 74° NNE 22:50:08 74° NNE visible
26 Apr ? 11:40:03 10° SW 22:46:13 75° NNE 22:46:13 75° NNE visible
27 Apr ? 11:35:37 10° SW 22:42:19 76° NNE 22:42:19 76° NNE visible
28 Apr ? 11:31:12 10° SW 22:38:26 77° NNE 22:38:26 77° NNE visible
29 Apr ? 11:26:47 10° SW 22:34:32 77° NNE 22:34:32 77° NNE visible
30 Apr ? 11:22:22 10° SW 22:30:38 78° NNE 22:30:38 78° NNE visible
01 May ? 11:17:57 10° SW 22:26:44 79° NNE 22:26:44 79° NNE visible
02 May ? 11:13:32 10° SW 22:22:50 80° NE 22:22:50 80° NE visible
03 May ? 11:09:07 10° SW 22:18:57 80° NE 22:18:57 80° NE visible
